Weather Roundup
Issued by NWS Springfield, MO

Home | Current Version | Previous Version | Text Only | Print | Product List | Glossary On
Versions: 1 2 3 4 5 6 7 8 9 10 11 12 13 14 15 16 17 18 19 20 21 22 23 24 25 26 27 28 29 30 31 32 33 34 35 36 37 38 39 40 41 42 43 44 45 46 47 48 49 50
000
NZUS99 KSGF 231007
HRRSGF

HOURLY WEATHER
NATIONAL WEATHER SERVICE SPRINGFIELD MO
500 AM CDT SAT AUG 23 2014

......SGF CWA......

CITY           SKY/WX    TMP DP  RH WIND       PRES   REMARKS
SPRINGFIELD    CLEAR     75  71  87 S6        29.99S
JOPLIN         CLEAR     79  69  71 S13       29.97R
WEST PLAINS    CLEAR     75  71  87 W5        30.02S
ROLLA          CLEAR     74  70  87 SW8       29.97S
OSAGE BEACH    CLEAR     73  70  88 S6        29.96S
BRANSON        CLEAR     73  72  94 S3        30.02R

......SURROUNDING SGF CWA......

CITY           SKY/WX    TMP DP  RH WIND       PRES   REMARKS
CHANUTE        CLEAR     76  69  79 S9        29.93S
PARSONS        CLEAR     76  69  79 S3        29.94S
COFFEYVILLE    CLEAR     78  70  76 S10       29.93S
EMPORIA        CLEAR     74  66  76 S12       29.89S
GROVE OK       CLEAR     77  72  83 S3        29.98S
ROGERS AR      CLEAR     76  68  76 S3        30.03R
SILOAM SPRINGS CLEAR     75  64  69 S5        30.02S
HARRISON AR    CLEAR     74  72  93 E3        30.02S
NEAR YELLVILLE CLEAR     77  72  83 S3        30.00R

......KANSAS AND MISSOURI......

CITY           SKY/WX    TMP DP  RH WIND       PRES   REMARKS
KANSAS CTY INT PTCLDY    79  71  76 S12       29.89S
DOWNTOWN KC    PTCLDY    81  70  69 S9        29.88S
COLUMBIA       CLEAR     77  74  90 S5        29.94S
SEDALIA        CLEAR     78  71  79 SW9       29.94S
ST JOSEPH      MOCLDY    77  72  84 S7        29.87S
ST LOUIS       MOCLDY    82  74  76 S3        29.93S
SPIRIT OF STL  CLEAR     75  74  96 CALM      29.92R
KIRKSVILLE     PTCLDY    77  75  93 SE6       29.94S
WICHITA        PTCLDY    74  62  66 S9        29.89S
TOPEKA         CLEAR     81  69  67 S9        29.86F
OLATHE         PTCLDY    76  70  82 S7        29.90S

......TENNESSEE......

CITY           SKY/WX    TMP DP  RH WIND       PRES   REMARKS
MEMPHIS        CLEAR     79  72  79 SW5       29.99S
NASHVILLE      PTCLDY    76  74  93 W3        30.00S

......ARKANSAS.......

CITY           SKY/WX    TMP DP  RH WIND       PRES   REMARKS
FAYETTEVILLE   CLEAR     71  70  96 CALM      30.02R
FT SMITH       CLEAR     76  72  87 NE5       29.98R
LITTLE ROCK    CLEAR     77  73  87 S3        29.99S

......OKLAHOMA.......

CITY           SKY/WX    TMP DP  RH WIND       PRES   REMARKS
TULSA          CLEAR     79  69  71 S13       29.93R
PONCA CITY     CLEAR     78  62  57 VRB7      29.91R
MCALESTER      CLEAR     79  70  74 S7        29.98R
OKLAHOMA CITY  CLEAR     71  61  70 S6        29.95R

......IOWA............

CITY           SKY/WX    TMP DP  RH WIND       PRES   REMARKS
DES MOINES     TSTM      73  70  90 W22       29.94R FOG
QUAD CITIES    MOCLDY    75  73  93 E7        29.93F

......ILLINOIS........

CITY           SKY/WX    TMP DP  RH WIND       PRES   REMARKS
QUINCY         CLEAR     76  74  93 SE6       29.91F
CHICAGO        CLOUDY    73  69  87 NE6       29.97S FOG




USA.gov is the U.S. government's official web portal to all federal, state and local government web resources and services.